This is the latest recevied weather packets stored in our database for station/object N5PLO-10. If no packets are shown the sender has not sent any weather packets the latest 1 day(s).
| Time | Temp. | Humidity | Pressure | Rain* | Wind** | Luminosity | Snow |
|---|---|---|---|---|---|---|---|
| 1778081230 | 27.22° C | 89% | 1015.4 hPa | 0 mm | - | 102 W/m² | - |
| 1778080323 | 26.67° C | 89% | 1014.9 hPa | 0 mm | - | 72 W/m² | - |
| 1778080019 | 26.67° C | 90% | 1014.8 hPa | 0 mm | - | 134 W/m² | - |
| 1778079716 | 26.67° C | 90% | 1014.7 hPa | 0 mm | - | 112 W/m² | - |
| 1778079413 | 26.67° C | 90% | 1014.7 hPa | 0 mm | - | 109 W/m² | - |
| 1778078808 | 26.67° C | 91% | 1014.5 hPa | 0 mm | - | 88 W/m² | - |
| 1778078504 | 26.67° C | 91% | 1014.7 hPa | 0 mm | - | 111 W/m² | - |
| 1778077598 | 26.11° C | 92% | 1014.4 hPa | 0 mm | - | 70 W/m² | - |
| 1778076691 | 26.11° C | 93% | 1014.4 hPa | 0 mm | - | 130 W/m² | - |
| 1778075782 | 25.56° C | 95% | 1014.5 hPa | 0 mm | - | 79 W/m² | - |
| 1778075175 | 25.56° C | 95% | 1014.7 hPa | 0 mm | - | 66 W/m² | - |
| 1778074265 | 25° C | 95% | 1014.7 hPa | 0 mm | - | 26 W/m² | - |
| 1778073053 | 25° C | 97% | 1014.8 hPa | 0 mm | - | 34 W/m² | - |
| 1778071843 | 24.44° C | 98% | 1014.6 hPa | 0 mm | - | 36 W/m² | - |
| 1778071238 | 24.44° C | 99% | 1014.4 hPa | 0 mm | - | 34 W/m² | - |
| 1778070330 | 23.89° C | 99% | 1014.6 hPa | 0 mm | - | 20 W/m² | - |
| 1778069120 | 23.89° C | 99% | 1014.4 hPa | 0 mm | - | 6 W/m² | - |
| 1778068817 | 23.89° C | 99% | 1014.2 hPa | 0 mm | - | 4 W/m² | - |
| 1778068213 | 23.89° C | 99% | 1014 hPa | 0 mm | - | 3 W/m² | - |
| 1778067910 | 23.89° C | 99% | 1014.1 hPa | 0 mm | - | 3 W/m² | - |
| 1778066095 | 23.89° C | 98% | 1013.7 hPa | 0 mm | - | 0 W/m² | - |
| 1778065186 | 23.89° C | 98% | 1013.7 hPa | 0 mm | - | 0 W/m² | - |
| 1778064882 | 23.89° C | 98% | 1013.5 hPa | 0 mm | - | 0 W/m² | - |
| 1778064278 | 23.89° C | 98% | 1013.5 hPa | 0 mm | - | 0 W/m² | - |
| 1778063976 | 23.89° C | 98% | 1013.6 hPa | 0 mm | - | 0 W/m² | - |
* Rain latest hour (hover to see other rain measurements)
** Current wind speed in m/s (hover to see current wind gust speed)